This is the latest recevied weather packets stored in our database for station/object KA8OAD-10. If no packets are shown the sender has not sent any weather packets the latest 10 day(s).
| Time | Temp. | Humidity | Pressure | Rain* | Wind** | Luminosity | Snow |
|---|---|---|---|---|---|---|---|
| 1777563452 | 7.78° C | 81% | 1012.7 hPa | 0 mm | - | 113 W/m² | - |
| 1777563152 | 7.78° C | 81% | 1012.6 hPa | 0 mm | - | 202 W/m² | - |
| 1777562851 | 7.78° C | 81% | 1012.6 hPa | 0 mm | - | 206 W/m² | - |
| 1777562550 | 7.78° C | 81% | 1012.7 hPa | 0 mm | - | 163 W/m² | - |
| 1777561052 | 7.22° C | 84% | 1012.4 hPa | 0 mm | - | 135 W/m² | - |
| 1777560751 | 7.22° C | 85% | 1012.5 hPa | 0 mm | - | 144 W/m² | - |
| 1777560149 | 7.22° C | 85% | 1012.3 hPa | 0 mm | - | 155 W/m² | - |
| 1777559552 | 6.67° C | 86% | 1012.1 hPa | 0 mm | - | 104 W/m² | - |
| 1777559252 | 6.67° C | 87% | 1012.1 hPa | 0 mm | - | 111 W/m² | - |
| 1777558952 | 6.67° C | 87% | 1012.1 hPa | 0 mm | - | 91 W/m² | - |
| 1777558350 | 6.67° C | 88% | 1012 hPa | 0 mm | - | 95 W/m² | - |
| 1777558050 | 6.67° C | 88% | 1012 hPa | 0 mm | - | 90 W/m² | - |
| 1777557753 | 6.67° C | 89% | 1011.9 hPa | 0 mm | - | 104 W/m² | - |
| 1777557453 | 6.67° C | 89% | 1011.9 hPa | 0 mm | - | 84 W/m² | - |
| 1777557153 | 6.11° C | 89% | 1011.8 hPa | 0 mm | - | 134 W/m² | - |
| 1777556852 | 6.11° C | 90% | 1011.7 hPa | 0 mm | - | 65 W/m² | - |
| 1777556551 | 6.11° C | 90% | 1011.5 hPa | 0 mm | - | 56 W/m² | - |
| 1777556251 | 6.11° C | 90% | 1011.5 hPa | 0 mm | - | 63 W/m² | - |
| 1777555950 | 6.11° C | 91% | 1011.4 hPa | 0 mm | - | 69 W/m² | - |
| 1777555650 | 6.11° C | 91% | 1011.3 hPa | 0 mm | - | 65 W/m² | - |
| 1777555053 | 6.11° C | 91% | 1011.3 hPa | 0 mm | - | 118 W/m² | - |
| 1777554752 | 5.56° C | 92% | 1011.2 hPa | 0 mm | - | 127 W/m² | - |
| 1777554452 | 5.56° C | 92% | 1011.2 hPa | 0 mm | - | 98 W/m² | - |
| 1777554152 | 5.56° C | 92% | 1011.2 hPa | 0 mm | - | 95 W/m² | - |
| 1777553851 | 5.56° C | 92% | 1011.2 hPa | 0 mm | - | 102 W/m² | - |
* Rain latest hour (hover to see other rain measurements)
** Current wind speed in m/s (hover to see current wind gust speed)